Satellite-Ground Cal/Val Site Overpasses Predictions

Prediction of Satellite NPP Overpassing Cal/Val Site: Antarctic Dome C

Ground Cal/Val Site Location: Latitude: -75.10, Longitude: 123.35; Satellite-Ground Site NADIR distance within 100 km.

Table of predicted overpasses for the next 14.0 days since TLE Epoch: 6/14/2024
Interval Starting Time Ending Time Minimum Distance Time Minimum Distance (km)
1 06/15/2024 14:42:08 06/15/2024 14:42:33 06/15/2024 14:42:21 52.70
2 06/16/2024 07:43:48 06/16/2024 07:44:09 06/16/2024 07:43:58 70.54
3 06/17/2024 07:24:53 06/17/2024 07:25:20 06/17/2024 07:25:06 37.71
4 06/19/2024 15:07:14 06/19/2024 15:07:23 06/19/2024 15:07:18 93.40
5 06/20/2024 14:48:12 06/20/2024 14:48:41 06/20/2024 14:48:27 17.94
6 06/22/2024 07:30:58 06/22/2024 07:31:27 06/22/2024 07:31:13 3.23
7 06/25/2024 14:54:17 06/25/2024 14:54:46 06/25/2024 14:54:32 17.61
8 06/26/2024 14:35:34 06/26/2024 14:35:47 06/26/2024 14:35:41 89.55
9 06/27/2024 07:37:04 06/27/2024 07:37:32 06/27/2024 07:37:18 33.18
